FW5284 Weather Reports


Display with metric or nautical units.
time (UTC)temp
F
wind
direction
speed
MPH
gust
MPH
rain 1hr
in
rain 24hr
in
rain mn
in
humidity
%
barometer
mb
20260508172012 59 297 0.0 0.0 0.00 0.00 0.00 66 975.3
20260508171528 59 297 0.0 0.0 0.00 0.00 0.00 65 975.4
20260508171008 59 297 0.0 0.0 0.00 0.00 0.00 66 975.4
20260508170504 59 297 0.0 0.0 0.00 0.00 0.00 66 975.3
20260508170020 59 297 0.0 0.0 0.00 0.00 0.00 65 975.4
20260508165507 59 297 0.0 0.0 0.00 0.00 0.00 68 975.5
20260508165006 59 297 0.0 0.0 0.00 0.00 0.00 66 975.4
20260508164527 59 297 0.0 0.0 0.00 0.00 0.00 65 975.5
20260508164006 58 297 0.0 0.0 0.00 0.00 0.00 68 975.6
20260508163509 58 297 0.0 0.0 0.00 0.00 0.00 66 975.6
20260508163027 59 297 0.0 0.0 0.00 0.00 0.00 65 975.6
20260508162510 59 299 0.0 0.0 0.00 0.00 0.00 66 975.7
20260508162013 59 297 0.0 0.0 0.00 0.00 0.00 67 975.6
20260508161526 58 296 0.0 0.0 0.00 0.00 0.00 67 975.7
20260508161011 58 296 0.0 0.0 0.00 0.00 0.00 68 975.8
20260508160509 58 297 0.0 0.0 0.00 0.00 0.00 68 975.9
20260508160027 58 296 0.0 0.0 0.00 0.00 0.00 67 975.9
20260508155507 58 297 0.0 0.0 0.00 0.00 0.00 67 975.9
20260508155007 58 296 0.0 0.0 0.00 0.00 0.00 66 976.0
20260508154541 57 296 0.0 0.0 0.00 0.00 0.00 69 975.9
20260508154009 57 297 0.0 0.0 0.00 0.00 0.00 69 975.9
20260508153503 57 296 0.0 0.0 0.00 0.00 0.00 69 975.8
20260508153011 57 296 0.0 0.0 0.00 0.00 0.00 66 976.0
20260508152504 57 296 0.0 0.0 0.00 0.00 0.00 69 976.0
20260508152003 57 297 0.0 0.0 0.00 0.00 0.00 70 975.9
20260508151512 57 297 0.0 0.0 0.00 0.00 0.00 68 975.9
20260508151002 57 297 0.0 0.0 0.00 0.00 0.00 69 976.0
20260508150504 57 297 0.0 0.0 0.00 0.00 0.00 68 976.0
20260508150011 57 296 0.0 0.0 0.00 0.00 0.00 67 976.1
20260508145506 56 296 0.0 0.0 0.00 0.00 0.00 68 976.1
20260508145002 56 296 0.0 0.0 0.00 0.00 0.00 66 976.0
20260508144504 56 296 0.0 0.0 0.00 0.00 0.00 68 976.0
20260508144006 56 296 0.0 0.0 0.00 0.00 0.00 71 975.9
20260508143505 55 296 0.0 0.0 0.00 0.00 0.00 69 975.8
20260508143003 55 296 0.0 0.0 0.00 0.00 0.00 71 975.9
20260508142503 54 296 0.0 0.0 0.00 0.00 0.00 71 976.0
20260508142003 53 296 0.0 0.0 0.00 0.00 0.00 74 976.0
20260508141506 53 296 0.0 0.0 0.00 0.00 0.00 72 976.1
20260508141003 52 296 0.0 0.0 0.00 0.00 0.00 73 976.2
20260508140504 52 296 0.0 0.0 0.00 0.00 0.00 72 976.2
20260508140010 52 296 0.0 0.0 0.00 0.00 0.00 74 976.3
20260508135506 51 296 0.0 0.0 0.00 0.00 0.00 75 976.3
20260508135007 51 296 0.0 0.0 0.00 0.00 0.00 75 976.4
20260508134515 50 296 0.0 0.0 0.00 0.00 0.00 79 976.4
20260508134004 50 296 0.0 0.0 0.00 0.00 0.00 78 976.4
20260508133503 50 296 0.0 0.0 0.00 0.00 0.00 80 976.4
20260508133006 50 296 0.0 0.0 0.00 0.00 0.00 80 976.4
20260508132504 50 296 0.0 0.0 0.00 0.00 0.00 80 976.5
20260508132004 50 296 0.0 0.0 0.00 0.00 0.00 80 976.8
20260508131505 50 296 0.0 0.0 0.00 0.00 0.00 80 976.8
20260508131004 50 296 0.0 0.0 0.00 0.00 0.00 80 976.8
20260508130504 50 296 0.0 0.0 0.00 0.00 0.00 80 976.7
20260508130014 50 296 0.0 0.0 0.00 0.00 0.00 80 976.6
20260508125504 49 296 0.0 0.0 0.00 0.00 0.00 79 976.7
20260508125004 50 296 0.0 0.0 0.00 0.00 0.00 80 976.3
20260508124517 49 296 0.0 0.0 0.00 0.00 0.00 79 976.4
20260508124004 49 296 0.0 0.0 0.00 0.00 0.00 79 976.4
20260508123509 49 296 0.0 0.0 0.00 0.00 0.00 79 976.4
20260508123026 49 296 0.0 0.0 0.00 0.00 0.00 78 976.3
20260508122504 49 296 0.0 0.0 0.00 0.00 0.00 79 976.3
20260508122007 49 296 0.0 0.0 0.00 0.00 0.00 82 976.2
20260508121505 49 296 0.0 0.0 0.00 0.00 0.00 83 976.1
20260508121003 48 296 0.0 0.0 0.00 0.00 0.00 84 976.1
20260508120503 48 296 0.0 0.0 0.00 0.00 0.00 82 976.1
20260508120006 48 296 0.0 0.0 0.00 0.00 0.00 82 976.0
20260508115504 48 296 0.0 0.0 0.00 0.00 0.00 82 976.0
20260508115003 47 296 0.0 0.0 0.00 0.00 0.00 83 976.0
20260508114511 47 296 0.0 0.0 0.00 0.00 0.00 84 975.8
20260508114004 47 296 0.0 0.0 0.00 0.00 0.00 85 975.6
20260508113504 46 296 0.0 0.0 0.00 0.00 0.00 85 975.6
20260508113019 46 296 0.0 0.0 0.00 0.00 0.00 85 975.5
20260508112506 46 296 0.0 0.0 0.00 0.00 0.00 85 975.6
20260508112006 45 296 0.0 0.0 0.00 0.00 0.00 85 975.7
20260508111519 45 296 0.0 0.0 0.00 0.00 0.00 85 975.7
20260508111008 45 296 0.0 0.0 0.00 0.00 0.00 85 975.7
20260508110507 45 296 0.0 0.0 0.00 0.00 0.00 86 975.8
20260508110004 45 296 0.0 0.0 0.00 0.00 0.00 86 975.8
20260508105503 44 296 0.0 0.0 0.00 0.00 0.00 87 975.8
20260508105003 44 296 0.0 0.0 0.00 0.00 0.00 88 976.1
20260508104508 43 296 0.0 0.0 0.00 0.00 0.00 88 976.0
20260508104004 43 296 0.0 0.0 0.00 0.00 0.00 87 975.7
20260508103504 43 296 0.0 0.0 0.00 0.00 0.00 87 975.5
20260508103013 43 296 0.0 0.0 0.00 0.00 0.00 86 975.6
20260508102503 43 296 0.0 0.0 0.00 0.00 0.00 86 975.7
20260508102005 43 296 0.0 0.0 0.00 0.00 0.00 86 975.7
20260508101518 43 296 0.0 0.0 0.00 0.00 0.00 86 975.7
20260508101007 43 296 0.0 0.0 0.00 0.00 0.00 86 975.7
20260508100507 43 296 0.0 0.0 0.00 0.00 0.00 85 975.6
20260508100022 43 296 0.0 0.0 0.00 0.00 0.00 85 975.7
20260508095506 43 296 0.0 0.0 0.00 0.00 0.00 85 975.9
20260508095011 44 296 0.0 0.0 0.00 0.00 0.00 85 975.7
20260508094523 44 296 0.0 0.0 0.00 0.00 0.00 86 975.8
20260508094003 44 296 0.0 0.0 0.00 0.00 0.00 86 975.7
20260508093504 43 296 0.0 0.0 0.00 0.00 0.00 86 975.9
20260508093011 43 296 0.0 0.0 0.00 0.00 0.00 86 975.9
20260508092503 43 296 0.0 0.0 0.00 0.00 0.00 86 975.8
20260508092003 44 296 0.0 0.0 0.00 0.00 0.00 85 975.8
20260508091513 44 296 0.0 0.0 0.00 0.00 0.00 85 975.9
20260508091008 44 296 0.0 0.0 0.00 0.00 0.00 84 975.9
20260508090505 44 296 0.0 0.0 0.00 0.00 0.00 83 976.0
20260508090033 44 296 0.0 0.0 0.00 0.00 0.00 83 976.0
20260508085506 44 296 0.0 0.0 0.00 0.00 0.00 82 976.0
20260508085006 45 296 0.0 0.0 0.00 0.00 0.00 82 976.0
20260508084522 45 296 0.0 0.0 0.00 0.00 0.00 82 976.0
20260508084008 45 296 0.0 0.0 0.00 0.00 0.00 81 976.1
20260508083512 45 296 0.0 0.0 0.00 0.00 0.00 81 976.1
20260508083024 46 296 0.0 0.0 0.00 0.00 0.00 80 975.9
20260508082511 46 296 0.0 0.0 0.00 0.00 0.00 80 976.0
20260508082003 46 296 0.0 0.0 0.00 0.00 0.00 79 976.0
20260508081512 47 296 0.0 0.0 0.00 0.00 0.00 78 976.0
20260508081004 47 296 0.0 0.0 0.00 0.00 0.00 78 976.1
20260508080503 47 296 0.0 0.0 0.00 0.00 0.00 77 976.1
20260508080015 47 296 0.0 0.0 0.00 0.00 0.00 76 976.1
20260508075508 48 296 0.0 0.0 0.00 0.00 0.00 77 976.1
20260508075006 48 296 0.0 0.0 0.00 0.00 0.00 75 976.2
20260508074524 48 296 0.0 0.0 0.00 0.00 0.00 75 976.1
20260508074009 48 296 0.0 0.0 0.00 0.00 0.00 74 976.1
20260508073510 48 296 0.0 0.0 0.00 0.00 0.00 74 976.1
20260508073024 47 296 0.0 0.0 0.00 0.00 0.00 76 976.1
20260508072510 47 296 0.0 0.0 0.00 0.00 0.00 76 976.1
20260508072007 46 296 0.0 0.0 0.00 0.00 0.00 77 976.2
20260508071526 45 296 0.0 0.0 0.00 0.00 0.00 79 976.1
20260508071013 45 296 0.0 0.0 0.00 0.00 0.00 82 976.2
20260508070508 44 296 0.0 0.0 0.00 0.00 0.00 85 976.1
20260508070014 44 296 0.0 0.0 0.00 0.00 0.00 85 976.1
20260508065504 44 296 0.0 0.0 0.00 0.00 0.00 86 976.1
20260508065008 44 296 0.0 0.0 0.00 0.00 0.00 86 976.1
20260508064518 44 296 0.0 0.0 0.00 0.00 0.00 86 976.2
20260508064006 44 296 0.0 0.0 0.00 0.00 0.00 86 976.1
20260508063504 44 296 0.0 0.0 0.00 0.00 0.00 86 976.1
20260508063008 44 296 0.0 0.0 0.00 0.00 0.00 86 976.2
20260508062503 44 296 0.0 0.0 0.00 0.00 0.00 86 976.2
20260508062003 44 296 0.0 0.0 0.00 0.00 0.00 86 976.2
20260508061503 44 296 0.0 0.0 0.00 0.00 0.00 86 976.3
20260508061006 44 296 0.0 0.0 0.00 0.00 0.00 85 976.3
20260508060506 44 296 0.0 0.0 0.00 0.00 0.00 85 976.3
20260508060009 44 296 0.0 0.0 0.00 0.00 0.00 85 976.3
20260508055506 44 296 0.0 0.0 0.00 0.00 0.00 85 976.3
20260508055010 44 296 0.0 0.0 0.00 0.00 0.00 85 976.4
20260508054516 44 296 0.0 0.0 0.00 0.00 0.00 85 976.5
20260508054011 44 296 0.0 0.0 0.00 0.00 0.00 85 976.6
20260508053505 43 296 0.0 0.0 0.00 0.00 0.00 84 976.6
20260508053005 43 296 0.0 0.0 0.00 0.00 0.00 85 976.6
20260508052506 43 296 0.0 0.0 0.00 0.00 0.00 85 976.7
20260508052004 43 296 0.0 0.0 0.00 0.00 0.00 86 976.8
20260508051503 43 296 0.0 0.0 0.00 0.00 0.00 87 976.7
20260508051005 43 296 0.0 0.0 0.00 0.00 0.00 88 976.8
20260508050504 43 296 0.0 0.0 0.00 0.00 0.00 88 976.8
20260508050005 42 296 0.0 0.0 0.00 0.00 0.00 87 976.8
20260508045507 42 296 0.0 0.0 0.00 0.00 0.00 88 976.8
20260508045006 42 296 0.0 0.0 0.00 0.00 0.00 88 976.7
20260508044510 41 296 0.0 0.0 0.00 0.00 0.00 88 976.9
20260508044004 41 296 0.0 0.0 0.00 0.00 0.00 89 976.8
20260508043504 41 296 0.0 0.0 0.00 0.00 0.00 89 976.8
20260508043018 41 296 0.0 0.0 0.00 0.00 0.00 89 976.9
20260508042506 40 296 0.0 0.0 0.00 0.00 0.00 89 976.8
20260508042006 40 296 0.0 0.0 0.00 0.00 0.00 89 976.8
20260508041522 40 296 0.0 0.0 0.00 0.00 0.00 89 976.7
20260508041003 40 296 0.0 0.0 0.00 0.00 0.00 89 976.8
20260508040503 40 296 0.0 0.0 0.00 0.00 0.00 88 976.8
20260508040004 39 296 0.0 0.0 0.00 0.00 0.00 88 976.9
20260508035504 39 296 0.0 0.0 0.00 0.00 0.00 88 976.9
20260508035004 39 296 0.0 0.0 0.00 0.00 0.00 88 976.8
20260508034508 39 296 0.0 0.0 0.00 0.00 0.00 87 976.8
20260508034004 39 296 0.0 0.0 0.00 0.00 0.00 86 976.8
20260508033503 39 296 0.0 0.0 0.00 0.00 0.00 86 976.8
20260508033010 40 296 0.0 0.0 0.00 0.00 0.00 85 976.8
20260508032506 40 296 0.0 0.0 0.00 0.00 0.00 86 976.8
20260508032008 40 296 0.0 0.0 0.00 0.00 0.00 85 976.8
20260508031519 40 296 0.0 0.0 0.00 0.00 0.00 85 976.7
20260508031010 40 296 0.0 0.0 0.00 0.00 0.00 85 976.7
20260508030506 40 296 0.0 0.0 0.00 0.00 0.00 84 976.7
20260508030020 40 296 0.0 0.0 0.00 0.00 0.00 84 976.8
20260508025509 41 296 0.0 0.0 0.00 0.00 0.00 83 976.9
20260508025003 41 296 0.0 0.0 0.00 0.00 0.00 83 976.9
20260508024516 41 296 0.0 0.0 0.00 0.00 0.00 82 976.9
20260508024003 41 296 0.0 0.0 0.00 0.00 0.00 82 976.9
20260508023503 42 296 0.0 0.0 0.00 0.00 0.00 81 976.9
20260508023010 42 296 0.0 0.0 0.00 0.00 0.00 80 976.8
20260508022504 43 296 0.0 0.0 0.00 0.00 0.00 79 976.8
20260508022004 43 296 0.0 0.0 0.00 0.00 0.00 78 976.7
20260508021519 44 296 0.0 0.0 0.00 0.00 0.00 78 976.7
20260508021007 44 296 0.0 0.0 0.00 0.00 0.00 80 976.7
20260508020505 44 296 0.0 0.0 0.00 0.00 0.00 79 976.7
20260508020020 44 296 0.0 0.0 0.00 0.00 0.00 74 976.7
20260508015506 44 296 0.0 0.0 0.00 0.00 0.00 73 976.6
20260508015006 45 296 0.0 0.0 0.00 0.00 0.00 73 976.6
20260508014525 45 296 0.0 0.0 0.00 0.00 0.00 76 976.5
20260508014007 46 296 0.0 0.0 0.00 0.00 0.00 74 976.5
20260508013508 46 296 0.0 0.0 0.00 0.00 0.00 66 976.5
20260508013008 46 296 0.0 0.0 0.00 0.00 0.00 65 976.5
20260508012504 47 296 0.0 0.0 0.00 0.00 0.00 66 976.6
20260508012003 47 296 0.0 0.0 0.00 0.00 0.00 68 976.5
20260508011512 47 296 0.0 0.0 0.00 0.00 0.00 69 976.4
20260508011004 47 296 0.0 0.0 0.00 0.00 0.00 64 976.3
20260508010504 48 296 0.0 0.0 0.00 0.00 0.00 63 976.3
20260508010016 48 296 0.0 0.0 0.00 0.00 0.00 61 976.3
20260508005505 49 296 0.0 0.0 0.00 0.00 0.00 61 976.3
20260508005007 49 296 0.0 0.0 0.00 0.00 0.00 60 976.4
20260508004536 50 296 0.0 0.0 0.00 0.00 0.00 55 976.3
20260508004009 50 296 0.0 0.0 0.00 0.00 0.00 54 976.3
20260508003507 50 296 0.0 0.0 0.00 0.00 0.00 54 976.2
20260508003021 51 296 0.0 0.0 0.00 0.00 0.00 53 976.2
20260508002507 51 295 0.0 0.0 0.00 0.00 0.00 56 976.2
20260508002013 51 296 0.0 0.0 0.00 0.00 0.00 53 976.2
20260508001524 51 296 0.0 0.0 0.00 0.00 0.00 52 976.0
20260508001004 52 296 0.0 0.0 0.00 0.00 0.00 53 976.0
20260508000505 52 296 0.0 0.0 0.00 0.00 0.00 52 975.9
20260508000013 52 296 0.0 0.0 0.00 0.00 0.00 53 975.9
20260507235509 52 295 0.0 0.0 0.00 0.00 0.00 49 975.8
20260507235008 52 296 0.0 0.0 0.00 0.00 0.00 50 975.7
20260507234518 53 295 0.0 0.0 0.00 0.00 0.00 50 975.7
20260507234005 53 295 0.0 0.0 0.00 0.00 0.00 49 975.7
20260507233513 53 295 0.0 0.0 0.00 0.00 0.00 50 975.8
20260507233024 53 295 0.0 0.0 0.00 0.00 0.00 50 975.8
20260507232508 53 296 0.0 0.0 0.00 0.00 0.00 50 975.7
20260507232007 53 295 0.0 0.0 0.00 0.00 0.00 48 975.7
20260507231525 53 295 0.0 0.0 0.00 0.00 0.00 46 975.7
20260507231009 53 295 0.0 0.0 0.00 0.00 0.00 46 975.8
20260507230508 54 295 0.0 0.0 0.00 0.00 0.00 47 975.9
20260507230026 54 295 0.0 0.0 0.00 0.00 0.00 46 975.7
20260507225505 54 295 0.0 0.0 0.00 0.00 0.00 46 975.8
20260507225007 54 295 0.0 0.0 0.00 0.00 0.00 45 975.8
20260507224514 54 295 0.0 0.0 0.00 0.00 0.00 47 975.8
20260507224004 54 296 0.0 0.0 0.00 0.00 0.00 47 975.7
20260507223512 54 295 0.0 0.0 0.00 0.00 0.00 47 975.8
20260507223018 54 295 0.0 0.0 0.00 0.00 0.00 46 975.8
20260507222508 55 295 0.0 0.0 0.00 0.00 0.00 46 975.9
20260507222008 55 295 0.0 0.0 0.00 0.00 0.00 47 975.9
20260507221524 55 295 0.0 0.0 0.00 0.00 0.00 47 975.9
20260507221013 55 295 0.0 0.0 0.00 0.00 0.00 51 975.8
20260507220514 55 295 0.0 0.0 0.00 0.00 0.00 54 975.9
20260507220027 55 295 0.0 0.0 0.00 0.00 0.00 52 975.8
20260507215514 55 295 0.0 0.0 0.00 0.00 0.00 53 975.7
20260507215014 55 295 0.0 0.0 0.00 0.00 0.00 55 975.6
20260507214527 55 295 0.0 0.0 0.00 0.00 0.00 54 975.5
20260507214007 55 295 0.0 0.0 0.00 0.00 0.00 55 975.4
20260507213507 55 295 0.0 0.0 0.00 0.00 0.00 56 975.4
20260507213027 55 295 0.0 0.0 0.00 0.00 0.00 56 975.4
20260507212505 54 295 0.0 0.0 0.00 0.00 0.00 60 975.4
20260507212004 54 295 0.0 0.0 0.00 0.00 0.00 61 975.4
20260507211503 54 295 0.0 0.0 0.00 0.00 0.00 57 975.4
20260507211004 54 295 0.0 0.0 0.00 0.00 0.00 57 975.4
20260507210503 55 295 0.0 0.0 0.00 0.00 0.00 55 975.3
20260507210005 55 295 0.0 0.0 0.00 0.00 0.00 56 975.3
20260507205508 55 295 0.0 0.0 0.00 0.00 0.00 56 975.2
20260507205005 55 295 0.0 0.0 0.00 0.00 0.00 56 975.3
20260507204510 55 295 0.0 0.0 0.00 0.00 0.00 55 975.2
20260507204005 55 295 0.0 0.0 0.00 0.00 0.00 55 975.0
20260507203504 56 295 0.0 0.0 0.00 0.00 0.00 56 974.9
20260507203029 56 295 0.0 0.0 0.00 0.00 0.00 53 974.9
20260507202508 56 295 0.0 0.0 0.00 0.00 0.00 56 974.9
20260507202006 56 295 0.0 0.0 0.00 0.00 0.00 56 975.0
20260507201519 56 295 0.0 0.0 0.00 0.00 0.00 53 975.0
20260507201006 56 295 0.0 0.0 0.00 0.00 0.00 53 974.9
20260507200503 56 295 0.0 0.0 0.00 0.00 0.00 53 975.0
20260507200006 56 295 0.0 0.0 0.00 0.00 0.00 57 974.9
20260507195503 56 295 0.0 0.0 0.00 0.00 0.00 53 975.0
20260507195003 56 295 0.0 0.0 0.00 0.00 0.00 55 975.1
20260507194512 56 294 0.0 0.0 0.00 0.00 0.00 53 975.0
20260507194004 55 294 0.0 0.0 0.00 0.00 0.00 54 975.2
20260507193504 55 295 0.0 0.0 0.00 0.00 0.00 53 975.3
20260507193017 55 295 0.0 0.0 0.00 0.00 0.00 53 975.3
20260507192505 56 295 0.0 0.0 0.00 0.00 0.00 52 975.3
20260507192006 56 295 0.0 0.0 0.00 0.00 0.00 53 975.3
20260507191519 56 295 0.0 0.0 0.00 0.00 0.00 51 975.4
20260507191010 56 294 0.0 0.0 0.00 0.00 0.00 52 975.4
20260507190506 56 294 0.0 0.0 0.00 0.00 0.00 52 975.4
20260507190024 57 294 0.0 0.0 0.00 0.00 0.00 50 975.5
20260507185510 58 294 0.0 0.0 0.00 0.00 0.00 49 975.5
20260507185003 59 294 0.0 0.0 0.00 0.00 0.00 46 975.5
20260507184506 61 294 0.0 0.0 0.00 0.00 0.00 44 975.4
20260507184002 65 294 0.0 0.0 0.00 0.00 0.00 40 975.4
20260507183504 65 294 0.0 0.0 0.00 0.00 0.00 42 975.3
20260507183011 65 294 0.0 0.0 0.00 0.00 0.00 42 975.5
20260507182503 63 293 0.0 0.0 0.00 0.00 0.00 48 975.4
20260507182007 62 293 0.0 0.0 0.00 0.00 0.00 50 975.4
20260507181515 61 293 0.0 0.0 0.00 0.00 0.00 50 975.3
20260507181006 61 292 0.0 0.0 0.00 0.00 0.00 47 975.1
20260507180509 58 292 0.0 0.0 0.00 0.00 0.00 53 974.4
20260507180023 58 288 0.0 0.0 0.00 0.00 0.00 48 974.3
20260507175506 60 288 0.0 0.0 0.00 0.00 0.00 48 972.9
20260507175012 59 284 0.0 0.0 0.00 0.00 0.00 47 971.8
20260507174534 59 285 0.0 0.0 0.00 0.00 0.00 45 981.5
20260507174010 59 287 0.0 0.0 0.00 0.00 0.00 48 971.4
20260507173510 59 287 0.0 0.0 0.00 0.00 0.00 47 974.9
20260507173011 59 285 0.0 0.0 0.00 0.00 0.00 47 982.1
20260507172503 58 285 0.0 0.0 0.00 0.00 0.00 49 983.2